| time (UTC) | temp F | wind direction | speed MPH | gust MPH | rain 1hr in | rain 24hr in | rain mn in | humidity % | barometer mb |
| 20260510141558 | 59 | 244 | 3.0 | 6.0 | 0.00 | 0.28 | 0.28 | 78 | 1012.5 |
| 20260510140039 | 59 | 273 | 3.0 | 6.0 | 0.00 | 0.28 | 0.28 | 80 | 1012.6 |
| 20260510134538 | 58 | 250 | 3.0 | 7.0 | 0.00 | 0.28 | 0.28 | 81 | 1012.7 |
| 20260510133019 | 58 | 247 | 2.0 | 10.0 | 0.00 | 0.28 | 0.28 | 81 | 1012.6 |
| 20260510131517 | 57 | 294 | 4.0 | 8.0 | 0.00 | 0.28 | 0.28 | 83 | 1012.6 |
| 20260510130116 | 57 | 235 | 4.0 | 8.0 | 0.00 | 0.28 | 0.28 | 83 | 1012.6 |
| 20260510124602 | 57 | 222 | 2.0 | 8.0 | 0.00 | 0.28 | 0.28 | 86 | 1012.7 |
| 20260510123054 | 56 | 208 | 3.0 | 6.0 | 0.00 | 0.28 | 0.28 | 89 | 1012.5 |
| 20260510121533 | 55 | 240 | 4.0 | 8.0 | 0.00 | 0.28 | 0.28 | 90 | 1012.4 |
| 20260510120031 | 54 | 237 | 2.0 | 8.0 | 0.00 | 0.28 | 0.28 | 93 | 1012.6 |
| 20260510114510 | 53 | 232 | 1.0 | 7.0 | 0.00 | 0.28 | 0.28 | 94 | 1012.4 |
| 20260510113009 | 53 | 215 | 3.0 | 14.0 | 0.00 | 0.28 | 0.28 | 94 | 1012.3 |
| 20260510111551 | 52 | 198 | 2.0 | 8.0 | 0.00 | 0.28 | 0.28 | 95 | 1011.9 |
| 20260510110056 | 51 | 215 | 2.0 | 5.0 | 0.00 | 0.28 | 0.28 | 95 | 1012.2 |
| 20260510104531 | 51 | 169 | 2.0 | 5.0 | 0.00 | 0.28 | 0.28 | 95 | 1012.2 |
| 20260510103028 | 51 | 246 | 1.0 | 5.0 | 0.00 | 0.28 | 0.28 | 96 | 1012.3 |
| 20260510101510 | 51 | 211 | 2.0 | 4.0 | 0.00 | 0.28 | 0.28 | 96 | 1012.3 |
| 20260510100011 | 50 | 215 | 0.0 | 3.0 | 0.00 | 0.28 | 0.28 | 96 | 1012.1 |
| 20260510094555 | 50 | 244 | 1.0 | 3.0 | 0.00 | 0.28 | 0.28 | 96 | 1012.0 |
| 20260510093054 | 50 | 242 | 0.0 | 2.0 | 0.00 | 0.28 | 0.28 | 96 | 1011.7 |
| 20260510091535 | 50 | 263 | 0.0 | 4.0 | 0.00 | 0.28 | 0.28 | 96 | 1011.7 |
| 20260510090035 | 50 | 238 | 1.0 | 4.0 | 0.00 | 0.28 | 0.28 | 96 | 1011.6 |
| 20260510084515 | 50 | 188 | 0.0 | 4.0 | 0.00 | 0.28 | 0.28 | 96 | 1011.6 |
| 20260510083015 | 50 | 194 | 1.0 | 2.0 | 0.00 | 0.28 | 0.28 | 96 | 1011.7 |
| 20260510081607 | 50 | 199 | 1.0 | 3.0 | 0.00 | 0.28 | 0.28 | 96 | 1011.6 |
| 20260510080103 | 50 | 201 | 2.0 | 3.0 | 0.00 | 0.28 | 0.28 | 96 | 1011.5 |
| 20260510074540 | 51 | 150 | 2.0 | 4.0 | 0.00 | 0.28 | 0.28 | 96 | 1011.3 |
| 20260510073046 | 51 | 205 | 0.0 | 2.0 | 0.00 | 0.28 | 0.28 | 96 | 1011.3 |
| 20260510071519 | 51 | 150 | 1.0 | 4.0 | 0.00 | 0.28 | 0.28 | 96 | 1011.0 |
| 20260510070019 | 51 | 189 | 1.0 | 2.0 | 0.00 | 0.28 | 0.28 | 96 | 1011.2 |
| 20260510064601 | 51 | 204 | 0.0 | 2.0 | 0.01 | 0.28 | 0.28 | 96 | 1011.2 |
| 20260510064500 | 51 | 204 | 0.0 | 2.0 | 0.01 | 0.28 | 0.28 | 96 | 1011.1 |
| 20260510063100 | 51 | 178 | 0.0 | 2.0 | 0.01 | 0.28 | 0.28 | 96 | 1011.1 |
| 20260510061541 | 51 | 134 | 1.0 | 4.0 | 0.03 | 0.28 | 0.28 | 96 | 1011.2 |
| 20260510060045 | 51 | 144 | 1.0 | 2.0 | 0.03 | 0.28 | 0.28 | 96 | 1011.5 |
| 20260510054523 | 51 | 152 | 1.0 | 3.0 | 0.02 | 0.27 | 0.27 | 96 | 1011.7 |
| 20260510053020 | 51 | 173 | 0.0 | 2.0 | 0.02 | 0.27 | 0.27 | 96 | 1011.9 |
| 20260510051503 | 51 | 178 | 2.0 | 3.0 | 0.00 | 0.25 | 0.25 | 96 | 1012.0 |
| 20260510050004 | 51 | 175 | 2.0 | 4.0 | 0.00 | 0.25 | 0.25 | 96 | 1012.0 |
| 20260510044542 | 50 | 159 | 1.0 | 3.0 | 0.00 | 0.25 | 0.25 | 96 | 1011.8 |
| 20260510043042 | 49 | 188 | 0.0 | 2.0 | 0.00 | 0.25 | 0.25 | 96 | 1011.7 |
| 20260510041523 | 49 | 355 | 0.0 | 2.0 | 0.01 | 0.25 | 0.25 | 96 | 1011.9 |
| 20260510040020 | 49 | 355 | 1.0 | 2.0 | 0.01 | 0.25 | 0.25 | 96 | 1012.1 |
| 20260510034501 | 49 | 355 | 0.0 | 2.0 | 0.01 | 0.25 | 0.25 | 96 | 1012.2 |
| 20260510033106 | 49 | 332 | 1.0 | 3.0 | 0.01 | 0.25 | 0.25 | 96 | 1012.6 |
| 20260510031546 | 49 | 325 | 1.0 | 2.0 | 0.00 | 0.24 | 0.24 | 96 | 1012.7 |
| 20260510030041 | 49 | 35 | 1.0 | 2.0 | 0.01 | 0.24 | 0.24 | 96 | 1012.6 |
| 20260510024522 | 48 | 155 | 0.0 | 2.0 | 0.01 | 0.24 | 0.24 | 96 | 1012.7 |
| 20260510023019 | 48 | 155 | 0.0 | 2.0 | 0.01 | 0.24 | 0.24 | 95 | 1012.9 |
| 20260510021651 | 48 | 129 | 1.0 | 3.0 | 0.01 | 0.24 | 0.24 | 95 | 1012.9 |
| 20260510014552 | 47 | 36 | 0.0 | 3.0 | 0.01 | 0.23 | 0.23 | 95 | 1013.2 |
| 20260510013046 | 47 | 38 | 1.0 | 3.0 | 0.03 | 0.23 | 0.23 | 95 | 1012.8 |
| 20260510011524 | 47 | 77 | 2.0 | 3.0 | 0.05 | 0.23 | 0.23 | 95 | 1012.7 |
| 20260510010034 | 47 | 106 | 2.0 | 3.0 | 0.06 | 0.22 | 0.22 | 95 | 1012.7 |
| 20260510004508 | 47 | 100 | 2.0 | 5.0 | 0.08 | 0.21 | 0.21 | 95 | 1012.8 |
| 20260510003007 | 47 | 121 | 1.0 | 4.0 | 0.07 | 0.19 | 0.19 | 95 | 1013.0 |
| 20260510001507 | 47 | 127 | 2.0 | 4.0 | 0.07 | 0.18 | 0.18 | 94 | 1013.0 |
| 20260510000006 | 47 | 140 | 1.0 | 2.0 | 0.04 | 0.15 | 0.15 | 94 | 1013.1 |
| 20260509234509 | 47 | 141 | 1.0 | 3.0 | 0.02 | 0.13 | 0.13 | 95 | 1013.0 |
| 20260509233005 | 47 | 38 | 1.0 | 2.0 | 0.02 | 0.12 | 0.12 | 95 | 1012.7 |
| 20260509231504 | 47 | 360 | 1.0 | 3.0 | 0.02 | 0.12 | 0.12 | 94 | 1012.6 |
| 20260509230008 | 46 | 9 | 2.0 | 4.0 | 0.02 | 0.11 | 0.11 | 95 | 1012.7 |
| 20260509224503 | 46 | 5 | 2.0 | 5.0 | 0.04 | 0.11 | 0.11 | 94 | 1012.5 |
| 20260509223002 | 46 | 341 | 3.0 | 5.0 | 0.07 | 0.10 | 0.10 | 94 | 1012.6 |
| 20260509221600 | 46 | 19 | 4.0 | 7.0 | 0.08 | 0.10 | 0.10 | 94 | 1012.6 |
| 20260509220100 | 46 | 58 | 3.0 | 8.0 | 0.08 | 0.09 | 0.09 | 94 | 1012.6 |
| 20260509214600 | 46 | 24 | 2.0 | 8.0 | 0.08 | 0.08 | 0.08 | 94 | 1012.6 |
| 20260509213115 | 46 | 44 | 2.0 | 12.0 | 0.05 | 0.05 | 0.05 | 93 | 1012.9 |
| 20260509211539 | 46 | 44 | 7.0 | 11.0 | 0.03 | 0.03 | 0.03 | 93 | 1012.9 |
| 20260509210044 | 46 | 62 | 5.0 | 7.0 | 0.01 | 0.01 | 0.01 | 92 | 1013.0 |
| 20260509204517 | 46 | 61 | 6.0 | 11.0 | 0.00 | 0.00 | 0.00 | 92 | 1013.1 |
| 20260509203023 | 46 | 46 | 5.0 | 10.0 | 0.00 | 0.00 | 0.00 | 92 | 1013.4 |
| 20260509201606 | 46 | 46 | 6.0 | 11.0 | 0.00 | 0.00 | 0.00 | 91 | 1013.5 |
| 20260509200100 | 46 | 56 | 9.0 | 14.0 | 0.00 | 0.00 | 0.00 | 91 | 1013.4 |
| 20260509194553 | 46 | 58 | 10.0 | 17.0 | 0.00 | 0.00 | 0.00 | 91 | 1013.0 |
| 20260509193043 | 46 | 82 | 9.0 | 13.0 | 0.00 | 0.00 | 0.00 | 91 | 1012.7 |
| 20260509191537 | 46 | 48 | 8.0 | 14.0 | 0.00 | 0.00 | 0.00 | 90 | 1013.1 |
| 20260509190037 | 47 | 45 | 8.0 | 15.0 | 0.00 | 0.00 | 0.00 | 91 | 1012.9 |
| 20260509184536 | 46 | 58 | 7.0 | 12.0 | 0.00 | 0.00 | 0.00 | 90 | 1014.0 |
| 20260509183036 | 46 | 68 | 10.0 | 12.0 | 0.00 | 0.00 | 0.00 | 89 | 1014.1 |
| 20260509181536 | 46 | 105 | 7.0 | 10.0 | 0.00 | 0.00 | 0.00 | 89 | 1014.0 |
| 20260509180048 | 46 | 57 | 8.0 | 11.0 | 0.00 | 0.00 | 0.00 | 88 | 1014.0 |
| 20260509174517 | 47 | 71 | 7.0 | 11.0 | 0.00 | 0.00 | 0.00 | 86 | 1014.0 |
| 20260509173023 | 47 | 71 | 7.0 | 11.0 | 0.00 | 0.00 | 0.00 | 85 | 1014.3 |
| 20260509171558 | 48 | 52 | 6.0 | 8.0 | 0.00 | 0.00 | 0.00 | 85 | 1014.3 |
| 20260509170057 | 48 | 80 | 4.0 | 7.0 | 0.00 | 0.00 | 0.00 | 83 | 1014.4 |
| 20260509164537 | 48 | 80 | 2.0 | 9.0 | 0.00 | 0.00 | 0.00 | 83 | 1014.3 |
| 20260509163036 | 48 | 44 | 2.0 | 6.0 | 0.00 | 0.00 | 0.00 | 85 | 1014.3 |
| 20260509161512 | 48 | 66 | 2.0 | 4.0 | 0.00 | 0.00 | 0.00 | 80 | 1014.5 |
| 20260509160010 | 48 | 33 | 3.0 | 5.0 | 0.00 | 0.00 | 0.00 | 81 | 1014.6 |
| 20260509154554 | 49 | 128 | 1.0 | 5.0 | 0.00 | 0.00 | 0.00 | 77 | 1014.8 |
| 20260509153100 | 49 | 152 | 1.0 | 3.0 | 0.00 | 0.00 | 0.00 | 79 | 1015.0 |
| 20260509151535 | 49 | 200 | 1.0 | 3.0 | 0.00 | 0.00 | 0.00 | 79 | 1015.1 |
| 20260509150033 | 49 | 180 | 2.0 | 7.0 | 0.00 | 0.00 | 0.00 | 80 | 1015.2 |
| 20260509144516 | 49 | 186 | 2.0 | 6.0 | 0.00 | 0.00 | 0.00 | 78 | 1015.4 |
| 20260509143014 | 49 | 182 | 4.0 | 7.0 | 0.00 | 0.00 | 0.00 | 74 | 1015.2 |